Chester, SC

9:50 AM EST on February 06, 2016 (GMT -0500)
Chester

Weather History for KDCM - November, 2013

Change the Weather History Date:

Friday, November 22, 2013

  Actual Average (KUZA) Record (KUZA)
Temperature  
Mean Temperature 60 °F -  
Max Temperature 68 °F 59 °F 76 °F (1958)
Min Temperature 51 °F 38 °F 17 °F (2000)
Degree Days  
Heating Degree Days 6    
Growing Degree Days 10 (Base 50)    
Moisture  
Dew Point 54 °F    
Average Humidity 83    
Maximum Humidity 100    
Minimum Humidity 72    
Precipitation  
Precipitation 0.01 in - - ()
Sea Level Pressure  
Sea Level Pressure 30.27 in    
Wind  
Wind Speed 3 mph (WSW)    
Max Wind Speed 7 mph    
Max Gust Speed -    
Visibility 9 miles    
Events Rain    
Averages and records for this station are not official NWS values.
T = Trace of Precipitation, MM = Missing Value Source: NWS Daily Summary

Daily Weather History Graph

Daily Weather History Graph

Search for Another Location

Airport or City:

Trip Planner

Search our weather history database for the weather conditions in past years. The results will help you decide how hot, cold, wet, or windy it might be!

Date:

Astronomy

Nov. 22, 2013 Rise Set
Actual Time 7:05 AM EST 5:15 PM EST
Civil Twilight 6:38 AM EST 5:43 PM EST
Nautical Twilight 6:07 AM EST 6:14 PM EST
Astronomical Twilight 5:37 AM EST 6:44 PM EST
Moon 9:43 PM EST (11/22) 10:50 AM EST (11/22)
Length of Visible Light 11h 04m
Length of Day
10h 10m
Waning Gibbous, 78% of the Moon is Illuminated
Nov 22
Waning Gibbous
Nov 25
Last Quarter
Dec 2
New
Dec 9
First Quarter
Dec 17
Full

Hourly Weather History & Observations

Time (EST) Temp. Dew Point Humidity Pressure Visibility Wind Dir Wind Speed Gust Speed Precip Events Conditions
12:15 AM 55.4 °F 46.4 °F 72% 30.39 in 10.0 mi NNW 3.5 mph - N/A   Overcast
12:35 AM 55.4 °F 46.4 °F 72% 30.39 in 10.0 mi NW 6.9 mph - N/A   Overcast
12:55 AM 55.4 °F 46.4 °F 72% 30.38 in 10.0 mi North 5.8 mph - N/A   Overcast
1:15 AM 55.4 °F 46.4 °F 72% 30.37 in 10.0 mi North 6.9 mph - N/A   Overcast
1:35 AM 53.6 °F 46.4 °F 77% 30.36 in 10.0 mi North 5.8 mph - N/A   Overcast
1:55 AM 53.6 °F 46.4 °F 77% 30.36 in 10.0 mi North 4.6 mph - N/A   Overcast
2:15 AM 53.6 °F 46.4 °F 77% 30.36 in 10.0 mi North 4.6 mph - N/A   Scattered Clouds
2:35 AM 51.8 °F 46.4 °F 82% 30.36 in 10.0 mi North 3.5 mph - N/A   Scattered Clouds
2:55 AM 51.8 °F 46.4 °F 82% 30.36 in 10.0 mi North 3.5 mph - N/A   Scattered Clouds
3:15 AM 53.6 °F 46.4 °F 77% 30.35 in 10.0 mi North 6.9 mph - N/A   Overcast
3:35 AM 53.6 °F 46.4 °F 77% 30.35 in 10.0 mi Calm Calm - N/A   Overcast
3:55 AM 53.6 °F 46.4 °F 77% 30.35 in 10.0 mi North 4.6 mph - N/A   Overcast
4:15 AM 53.6 °F 46.4 °F 77% 30.35 in 10.0 mi North 5.8 mph - N/A   Overcast
4:35 AM 53.6 °F 46.4 °F 77% 30.34 in 10.0 mi North 4.6 mph - N/A   Overcast
4:55 AM 53.6 °F 46.4 °F 77% 30.34 in 10.0 mi Calm Calm - N/A   Overcast
5:15 AM 53.6 °F 46.4 °F 77% 30.34 in 10.0 mi Calm Calm - N/A   Overcast
5:35 AM 53.6 °F 46.4 °F 77% 30.34 in 10.0 mi North 3.5 mph - N/A   Overcast
5:55 AM 53.6 °F 46.4 °F 77% 30.34 in 10.0 mi Calm Calm - N/A   Overcast
6:15 AM 53.6 °F 46.4 °F 77% 30.35 in 10.0 mi NNW 5.8 mph - N/A   Overcast
6:35 AM 53.6 °F 46.4 °F 77% 30.35 in 10.0 mi North 3.5 mph - N/A   Overcast
6:55 AM 53.6 °F 46.4 °F 77% 30.35 in 10.0 mi North 4.6 mph - N/A   Overcast
7:15 AM 53.6 °F 48.2 °F 82% 30.35 in 10.0 mi Calm Calm - N/A   Overcast
7:35 AM 53.6 °F 48.2 °F 82% 30.35 in 10.0 mi Calm Calm - N/A   Overcast
7:55 AM 53.6 °F 48.2 °F 82% 30.34 in 10.0 mi Calm Calm - N/A   Overcast
8:15 AM 55.4 °F 50.0 °F 82% 30.33 in 10.0 mi Calm Calm - N/A   Overcast
8:35 AM 55.4 °F 50.0 °F 82% 30.34 in 10.0 mi Calm Calm - N/A   Overcast
8:55 AM 55.4 °F 50.0 °F 82% 30.35 in 10.0 mi Calm Calm - N/A   Overcast
9:15 AM 55.4 °F 50.0 °F 82% 30.34 in 10.0 mi Calm Calm - N/A   Overcast
9:35 AM 57.2 °F 51.8 °F 82% 30.34 in 10.0 mi Calm Calm - N/A   Overcast
9:55 AM 59.0 °F 51.8 °F 77% 30.34 in 7.0 mi Calm Calm - N/A   Overcast
10:15 AM 59.0 °F 51.8 °F 77% 30.34 in 10.0 mi Calm Calm - N/A   Overcast
10:35 AM 60.8 °F 51.8 °F 72% 30.33 in 5.0 mi Calm Calm - N/A   Haze
10:55 AM 60.8 °F 53.6 °F 77% 30.33 in 5.0 mi Calm Calm - N/A   Haze
11:15 AM 62.6 °F 53.6 °F 72% 30.32 in 5.0 mi Calm Calm - N/A   Haze
11:35 AM 62.6 °F 55.4 °F 77% 30.31 in 7.0 mi Calm Calm - N/A   Overcast
11:55 AM 64.4 °F 55.4 °F 73% 30.30 in 5.0 mi Calm Calm - N/A   Haze
12:15 PM 64.4 °F 57.2 °F 77% 30.29 in 5.0 mi SW 3.5 mph - N/A   Haze
12:35 PM 66.2 °F 59.0 °F 78% 30.28 in 7.0 mi SSW 4.6 mph - N/A   Overcast
12:55 PM 68.0 °F 59.0 °F 73% 30.27 in 7.0 mi WSW 3.5 mph - N/A   Overcast
1:15 PM 68.0 °F 59.0 °F 73% 30.27 in 10.0 mi SW 6.9 mph - N/A   Overcast
1:35 PM 66.2 °F 59.0 °F 78% 30.26 in 10.0 mi SW 3.5 mph - N/A   Overcast
1:55 PM 68.0 °F 59.0 °F 73% 30.24 in 10.0 mi SSW 4.6 mph - N/A   Overcast
2:15 PM 68.0 °F 59.0 °F 73% 30.24 in 10.0 mi SW 4.6 mph - N/A   Overcast
2:35 PM 68.0 °F 59.0 °F 73% 30.23 in 10.0 mi SSW 5.8 mph - N/A   Overcast
2:55 PM 66.2 °F 59.0 °F 78% 30.23 in 10.0 mi SW 3.5 mph - N/A   Overcast
3:15 PM 68.0 °F 59.0 °F 73% 30.22 in 10.0 mi SW 5.8 mph - N/A   Overcast
3:35 PM 68.0 °F 59.0 °F 73% 30.22 in 10.0 mi South 3.5 mph - N/A   Overcast
3:55 PM 68.0 °F 59.0 °F 73% 30.22 in 10.0 mi SSW 3.5 mph - N/A   Overcast
4:15 PM 68.0 °F 59.0 °F 73% 30.22 in 10.0 mi West 4.6 mph - N/A   Overcast
4:35 PM 66.2 °F 59.0 °F 78% 30.21 in 10.0 mi Calm Calm - N/A   Scattered Clouds
4:55 PM 64.4 °F 59.0 °F 83% 30.20 in 10.0 mi South 3.5 mph - N/A   Mostly Cloudy
5:15 PM 64.4 °F 59.0 °F 83% 30.20 in 10.0 mi South 3.5 mph - N/A   Scattered Clouds
5:35 PM 64.4 °F 60.8 °F 88% 30.20 in 10.0 mi SSW 4.6 mph - N/A   Mostly Cloudy
5:55 PM 64.4 °F 60.8 °F 88% 30.20 in 10.0 mi South 4.6 mph - N/A   Overcast
6:15 PM 62.6 °F 60.8 °F 94% 30.19 in 10.0 mi SSW 4.6 mph - N/A   Overcast
6:35 PM 62.6 °F 60.8 °F 94% 30.18 in 10.0 mi South 5.8 mph - N/A   Overcast
6:55 PM 62.6 °F 60.8 °F 94% 30.18 in 10.0 mi SSW 5.8 mph - N/A   Overcast
7:15 PM 62.6 °F 62.6 °F 100% 30.17 in 10.0 mi SSW 6.9 mph - N/A   Overcast
7:35 PM 62.6 °F 62.6 °F 100% 30.17 in 10.0 mi SSW 4.6 mph - N/A   Overcast
7:55 PM 62.6 °F 62.6 °F 100% 30.17 in 10.0 mi WSW 3.5 mph - N/A   Overcast
8:15 PM 62.6 °F 62.6 °F 100% 30.17 in 10.0 mi SW 3.5 mph - N/A   Overcast
8:35 PM 62.6 °F 62.6 °F 100% 30.17 in 10.0 mi SW 4.6 mph - N/A   Overcast
8:55 PM 62.6 °F 62.6 °F 100% 30.17 in 10.0 mi SSW 3.5 mph - N/A   Overcast
9:15 PM 62.6 °F 62.6 °F 100% 30.16 in 10.0 mi SW 4.6 mph - N/A   Overcast
9:35 PM 62.6 °F 62.6 °F 100% 30.16 in 10.0 mi SSW 3.5 mph - N/A   Mostly Cloudy
9:55 PM 62.6 °F 62.6 °F 100% 30.16 in 10.0 mi Calm Calm - N/A   Mostly Cloudy
10:15 PM 62.6 °F 62.6 °F 100% 30.16 in 10.0 mi Calm Calm - N/A   Scattered Clouds
10:35 PM 62.6 °F 62.6 °F 100% 30.15 in 10.0 mi Calm Calm - N/A   Scattered Clouds
10:55 PM 62.6 °F 62.6 °F 100% 30.15 in 10.0 mi WSW 3.5 mph - N/A   Scattered Clouds
11:15 PM 62.6 °F 60.8 °F 94% 30.16 in 10.0 mi WSW 3.5 mph - N/A   Mostly Cloudy
11:35 PM 62.6 °F 60.8 °F 94% 30.15 in 5.0 mi Calm Calm - N/A Rain Heavy Rain
11:55 PM 60.8 °F 60.8 °F 100% 30.14 in 4.0 mi Calm Calm - 0.01 in Rain Light Rain